{"data":{"norad_id":58884,"intl_designator":"2024-020J","name":"STARLINK-31315","alt_names":[],"object_type":"PAYLOAD","status":"ACTIVE","operator":null,"country":"US","launch_date":"2024-01-29","launch_site_code":"AFWTR","launch_vehicle":null,"mission":null,"orbit_class":"UNKNOWN","rcs_meters":null,"size_class":null,"mass_kg":null,"dimensions":null,"purposes":["comms"],"wikipedia_slug":null,"has_3d_model":false,"image_url":null,"decayed_at":null,"tle_current":{"epoch":"2026-09-19T02:20:31.947072Z","epoch_age_seconds":273809,"freshness":"STALE","line1":"1 58884U 24020J   26262.09759198  .00003491  00000+0  11443-3 0  9999","line2":"2 58884  53.1596 116.1718 0001256  93.9388 266.1758 15.34394053148075","mean_motion":15.34394053,"eccentricity":0.0001256,"inclination_deg":53.1596,"raan_deg":116.1718,"arg_perigee_deg":93.9388,"mean_anomaly_deg":266.1758,"bstar":0.00011443,"rev_number":14807,"period_min":93.848121816202,"perigee_km":461.86170424722,"apogee_km":463.58012775572,"semimajor_km":6840.8579160015,"source":"CELESTRAK","updated_at":"2026-09-21T09:00:33.993386Z"}}}